QPF
0.00 0.00 0.00 0.00 0.00 0.00 0.00 0.00 0.00 0.00 0.00 0.00 0.00 0.00 0.00 0.00 0.00 0.00 0.00 0.00 0.00 0.00 0.00 0.00 0.00 0.00 0.00 0.00 0.00 0.00 0.00 0.00 0.00 0.00 0.00 0.00 0.00 0.00 0.00 0.00 0.00 0.00 0.00 0.00
0.00 0.00 0.00 0.00 0.00 0.00 0.00 0.00 0.00 0.00 0.00 0.00 0.00 0.00 0.00 0.00 0.00 0.00 0.00 0.00 0.00 0.00 0.00 0.00 0.00 0.00 0.00 0.00 0.00 0.00 0.00 0.00 0.00 0.00 0.00 0.00 0.00 0.00 0.00 0.00 0.00 0.00 0.00 0.00
0.00 0.00 0.00 0.00 0.00 0.00 0.00 0.00 0.00 0.00 0.00 0.00 0.00 0.00 0.00 0.00 0.00 0.00 0.00 0.00 0.00 0.00 0.00 0.00 0.00 0.00 0.00 0.00 0.00 0.00 0.00 0.00 0.00 0.00 0.00 0.00 0.00 0.00 0.00 0.00 0.00 0.00 0.00 0.00
0.00 0.00 0.01 0.00 0.00 0.00 0.00 0.00 0.00 0.00 0.00 0.00 0.00 0.00 0.00 0.00 0.00 0.00 0.00 0.00 0.00 0.00 0.00 0.00 0.00 0.00 0.00 0.00 0.00 0.00 0.00 0.00 0.00 0.00 0.00 0.00 0.00 0.00 0.00 0.00 0.00 0.00 0.00 0.00
0.01 0.01 0.00 0.00 0.00 0.00 0.00 0.00 0.00 0.00 0.00 0.00 0.00 0.00 0.00 0.00 0.00 0.00 0.00 0.00 0.00 0.00 0.00 0.00 0.00 0.00 0.00 0.00 0.00 0.00 0.00 0.00 0.00 0.00 0.00 0.00 0.00 0.00 0.00 0.00 0.00 0.00 0.00 0.00
0.02 0.01 0.00 0.00 0.00 0.00 0.00 0.00 0.00 0.00 0.00 0.00 0.00 0.00 0.00 0.00 0.00 0.00 0.00 0.00 0.00 0.00 0.00 0.00 0.00 0.00 0.00 0.00 0.00 0.00 0.00 0.00 0.00 0.00 0.00 0.00 0.00 0.00 0.00 0.00 0.00 0.00 0.00 0.00
0.02 0.01 0.00 0.00 0.00 0.00 0.00 0.00 0.00 0.00 0.00 0.00 0.00 0.00 0.00 0.00 0.00 0.00 0.00 0.00 0.00 0.00 0.00 0.00 0.00 0.00 0.00 0.00 0.00 0.00 0.00 0.00 0.00 0.00 0.00 0.00 0.00 0.00 0.00 0.00 0.00 0.00 0.00 0.00
0.01 0.01 0.00 0.00 0.00 0.00 0.00 0.00 0.00 0.00 0.00 0.00 0.00 0.00 0.00 0.00 0.00 0.00 0.00 0.00 0.00 0.00 0.00 0.00 0.00 0.00 0.00 0.00 0.00 0.00 0.00 0.00 0.00 0.00 0.00 0.00 0.00 0.00 0.00 0.00 0.00 0.00 0.00 0.00
0.00 0.00 0.00 0.00 0.00 0.00 0.00 0.00 0.00 0.00 0.00 0.00 0.00 0.00 0.00 0.00 0.00 0.00 0.00 0.00 0.00 0.00 0.00 0.00 0.00 0.00 0.00 0.00 0.00 0.00 0.00 0.00 0.00 0.00 0.00 0.00 0.00 0.00 0.00 0.00 0.00 0.00 0.00 0.00
0.00 0.00 0.00 0.00 0.00 0.00 0.00 0.00 0.00 0.00 0.00 0.00 0.00 0.00 0.00 0.00 0.00 0.00 0.00 0.00 0.00 0.00 0.00 0.00 0.00 0.00 0.00 0.00 0.00 0.00 0.00 0.00 0.00 0.00 0.00 0.00 0.00 0.00 0.00 0.00 0.00 0.00 0.00 0.00
0.00 0.00 0.00 0.00 0.00 0.00 0.00 0.00 0.00 0.00 0.00 0.00 0.00 0.00 0.00 0.00 0.00 0.00 0.00 0.00 0.00 0.00 0.00 0.00 0.00 0.00 0.00 0.00 0.00 0.00 0.00 0.00 0.00 0.00 0.00 0.00 0.00 0.00 0.00 0.00 0.00 0.00 0.00 0.00
0.00 0.00 0.00 0.00 0.00 0.00 0.00 0.00 0.00 0.00 0.00 0.00 0.00 0.00 0.00 0.00 0.00 0.00 0.00 0.00 0.00 0.00 0.00 0.00 0.00 0.00 0.00 0.00 0.00 0.00 0.00 0.00 0.00 0.00 0.00 0.00 0.00 0.00 0.00 0.00 0.00 0.00 0.00 0.00
0.00 0.00 0.00 0.00 0.00 0.00 0.00 0.00 0.00 0.00 0.00 0.00 0.00 0.00 0.00 0.00 0.00 0.00 0.00 0.00 0.00 0.00 0.00 0.00 0.00 0.00 0.00 0.00 0.00 0.00 0.00 0.00 0.00 0.00 0.00 0.00 0.00 0.00 0.00 0.00 0.00 0.00 0.00 0.00
0.00 0.00 0.00 0.00 0.00 0.00 0.00 0.00 0.00 0.00 0.00 0.00 0.00 0.00 0.00 0.00 0.00 0.00 0.00 0.00 0.00 0.00 0.00 0.00 0.00 0.00 0.00 0.00 0.00 0.00 0.00 0.00 0.00 0.00 0.00 0.00 0.00 0.00 0.00 0.00 0.00 0.00 0.00 0.00
0.00 0.00 0.00 0.00 0.00 0.00 0.00 0.00 0.00 0.00 0.00 0.00 0.00 0.00 0.00 0.00 0.00 0.00 0.00 0.00 0.00 0.00 0.00 0.00 0.00 0.00 0.00 0.00 0.00 0.00 0.00 0.00 0.00 0.00 0.00 0.00 0.00 0.00 0.00 0.00 0.00 0.00 0.00 0.00
0.00 0.00 0.00 0.00 0.00 0.00 0.00 0.00 0.00 0.00 0.00 0.00 0.00 0.00 0.00 0.00 0.00 0.00 0.00 0.00 0.00 0.00 0.00 0.00 0.00 0.00 0.00 0.00 0.00 0.00 0.00 0.00 0.00 0.00 0.00 0.00 0.00 0.00 0.00 0.00 0.00 0.00 0.00 0.00
0.00 0.00 0.00 0.00 0.00 0.00 0.00 0.00 0.00 0.00 0.00 0.00 0.00 0.00 0.00 0.00 0.00 0.00 0.00 0.00 0.00 0.00 0.00 0.00 0.00 0.00 0.00 0.00 0.00 0.00 0.00 0.00 0.00 0.00 0.00 0.00 0.00 0.00 0.00 0.00 0.00 0.00 0.00 0.00
0.00 0.00 0.00 0.00 0.00 0.00 0.00 0.00 0.00 0.00 0.00 0.00 0.00 0.00 0.00 0.00 0.00 0.00 0.00 0.00 0.00 0.00 0.00 0.00 0.00 0.00 0.00 0.00 0.00 0.00 0.00 0.00 0.00 0.00 0.00 0.00 0.00 0.00 0.00 0.00 0.00 0.00 0.00 0.00
0.00 0.00 0.00 0.00 0.00 0.00 0.00 0.00 0.00 0.00 0.00 0.00 0.00 0.00 0.00 0.00 0.00 0.00 0.00 0.00 0.00 0.00 0.00 0.00 0.00 0.00 0.00 0.00 0.00 0.00 0.00 0.00 0.00 0.00 0.00 0.00 0.00 0.00 0.00 0.00 0.00 0.00 0.00 0.00
0.00 0.00 0.00 0.00 0.00 0.00 0.00 0.00 0.00 0.00 0.00 0.00 0.00 0.00 0.00 0.00 0.00 0.00 0.00 0.00 0.00 0.00 0.00 0.00 0.00 0.00 0.00 0.00 0.00 0.00 0.00 0.00 0.00 0.00 0.00 0.00 0.00 0.00 0.00 0.00 0.00 0.01 0.01 0.01
0.00 0.00 0.00 0.00 0.00 0.00 0.00 0.00 0.00 0.00 0.00 0.00 0.00 0.00 0.00 0.00 0.00 0.00 0.00 0.00 0.00 0.00 0.00 0.00 0.00 0.00 0.00 0.00 0.00 0.00 0.00 0.00 0.00 0.00 0.00 0.00 0.00 0.00 0.00 0.00 0.01 0.01 0.01 0.01
0.00 0.00 0.00 0.00 0.00 0.00 0.00 0.00 0.00 0.00 0.00 0.00 0.00 0.00 0.00 0.00 0.00 0.00 0.00 0.00 0.00 0.00 0.00 0.00 0.00 0.00 0.00 0.00 0.00 0.00 0.00 0.00 0.00 0.00 0.00 0.00 0.00 0.01 0.01 0.01 0.01 0.00 0.00 0.00
0.00 0.00 0.00 0.00 0.00 0.00 0.00 0.00 0.00 0.00 0.00 0.00 0.00 0.00 0.00 0.00 0.00 0.00 0.00 0.00 0.00 0.00 0.00 0.00 0.00 0.00 0.00 0.00 0.00 0.00 0.00 0.00 0.00 0.00 0.00 0.00 0.00 0.01 0.01 0.01 0.01 0.01 0.01 0.01
0.00 0.00 0.00 0.01 0.01 0.01 0.01 0.01 0.01 0.01 0.01 0.00 0.00 0.00 0.00 0.00 0.00 0.00 0.00 0.00 0.00 0.00 0.00 0.00 0.00 0.00 0.00 0.00 0.00 0.00 0.00 0.00 0.00 0.00 0.00 0.00 0.01 0.01 0.01 0.01 0.01 0.01 0.01 0.01
0.00 0.01 0.01 0.01 0.01 0.01 0.01 0.01 0.01 0.00 0.00 0.00 0.00 0.00 0.00 0.00 0.00 0.00 0.00 0.00 0.00 0.00 0.00 0.00 0.00 0.00 0.00 0.00 0.00 0.00 0.00 0.00 0.00 0.01 0.01 0.01 0.01 0.01 0.01 0.01 0.01 0.01 0.01 0.01
0.00 0.00 0.00 0.00 0.00 0.00 0.00 0.00 0.00 0.00 0.00 0.00 0.00 0.00 0.00 0.00 0.00 0.00 0.00 0.00 0.00 0.00 0.00 0.00 0.00 0.00 0.00 0.00 0.00 0.00 0.00 0.00 0.00 0.00 0.00 0.00 0.00 0.01 0.01 0.01 0.00 0.01 0.01 0.01
0.00 0.00 0.00 0.00 0.00 0.00 0.00 0.00 0.00 0.00 0.00 0.00 0.00 0.00 0.00 0.00 0.00 0.00 0.00 0.00 0.00 0.00 0.00 0.00 0.00 0.00 0.00 0.00 0.00 0.00 0.00 0.00 0.00 0.00 0.00 0.00 0.01 0.01 0.01 0.01 0.01 0.01 0.01 0.01
MSLP
1006.87 1007.51 1008.17 1008.80 1009.32 1009.67 1009.80 1009.70 1009.38 1008.88 1008.27 1007.62 1007.02 1006.53 1006.21 1006.06 1006.08 1006.24 1006.51 1006.85 1007.23 1007.63 1008.05 1008.50 1009.00 1009.56 1010.21 1010.95 1011.76 1012.64 1013.53 1014.43 1015.29 1016.09 1016.82 1017.46 1018.03 1018.52 1018.93 1019.29 1019.58 1019.82 1019.99 1020.11
1006.71 1007.23 1007.72 1008.14 1008.44 1008.59 1008.57 1008.38 1008.05 1007.61 1007.11 1006.62 1006.20 1005.88 1005.68 1005.61 1005.65 1005.79 1006.00 1006.25 1006.53 1006.84 1007.20 1007.61 1008.10 1008.69 1009.38 1010.18 1011.06 1011.99 1012.95 1013.89 1014.79 1015.62 1016.37 1017.04 1017.61 1018.10 1018.52 1018.86 1019.13 1019.34 1019.49 1019.58
1006.58 1006.97 1007.29 1007.50 1007.59 1007.56 1007.40 1007.13 1006.79 1006.40 1006.03 1005.69 1005.44 1005.28 1005.22 1005.24 1005.33 1005.48 1005.64 1005.84 1006.05 1006.29 1006.59 1006.97 1007.45 1008.04 1008.74 1009.56 1010.46 1011.42 1012.39 1013.35 1014.27 1015.12 1015.88 1016.56 1017.15 1017.65 1018.07 1018.41 1018.68 1018.87 1019.00 1019.06
1006.38 1006.64 1006.78 1006.81 1006.73 1006.54 1006.27 1005.95 1005.62 1005.31 1005.06 1004.89 1004.81 1004.81 1004.89 1005.03 1005.20 1005.37 1005.54 1005.71 1005.88 1006.08 1006.34 1006.68 1007.13 1007.69 1008.38 1009.18 1010.06 1011.00 1011.95 1012.90 1013.80 1014.64 1015.40 1016.09 1016.69 1017.20 1017.64 1017.98 1018.25 1018.44 1018.54 1018.58
1006.02 1006.15 1006.15 1006.02 1005.80 1005.50 1005.17 1004.84 1004.56 1004.35 1004.23 1004.22 1004.32 1004.50 1004.73 1004.99 1005.25 1005.49 1005.69 1005.87 1006.04 1006.22 1006.45 1006.76 1007.17 1007.70 1008.34 1009.08 1009.91 1010.78 1011.68 1012.58 1013.44 1014.25 1014.99 1015.67 1016.27 1016.80 1017.24 1017.60 1017.86 1018.04 1018.13 1018.14
1005.45 1005.46 1005.34 1005.11 1004.80 1004.45 1004.10 1003.81 1003.60 1003.51 1003.55 1003.71 1003.98 1004.33 1004.72 1005.11 1005.48 1005.80 1006.07 1006.29 1006.48 1006.66 1006.88 1007.17 1007.54 1008.01 1008.59 1009.25 1010.00 1010.79 1011.61 1012.42 1013.22 1013.98 1014.69 1015.34 1015.93 1016.45 1016.89 1017.25 1017.51 1017.67 1017.74 1017.72
1004.66 1004.58 1004.37 1004.08 1003.74 1003.39 1003.09 1002.87 1002.77 1002.81 1003.00 1003.32 1003.76 1004.27 1004.81 1005.34 1005.82 1006.24 1006.58 1006.85 1007.08 1007.29 1007.52 1007.79 1008.13 1008.55 1009.06 1009.64 1010.29 1010.99 1011.71 1012.43 1013.15 1013.84 1014.49 1015.10 1015.66 1016.15 1016.57 1016.91 1017.15 1017.29 1017.32 1017.25
1003.70 1003.55 1003.31 1003.01 1002.69 1002.39 1002.16 1002.05 1002.08 1002.26 1002.60 1003.07 1003.65 1004.29 1004.96 1005.60 1006.18 1006.69 1007.11 1007.45 1007.74 1007.99 1008.23 1008.50 1008.82 1009.20 1009.64 1010.16 1010.72 1011.32 1011.94 1012.57 1013.19 1013.80 1014.39 1014.93 1015.44 1015.88 1016.25 1016.55 1016.74 1016.83 1016.82 1016.71
1002.66 1002.48 1002.25 1001.98 1001.72 1001.51 1001.39 1001.40 1001.56 1001.87 1002.33 1002.93 1003.62 1004.36 1005.12 1005.84 1006.50 1007.08 1007.57 1007.98 1008.31 1008.61 1008.88 1009.17 1009.48 1009.83 1010.23 1010.68 1011.17 1011.69 1012.22 1012.76 1013.30 1013.83 1014.33 1014.80 1015.23 1015.60 1015.90 1016.12 1016.25 1016.28 1016.21 1016.04
1001.63 1001.47 1001.28 1001.08 1000.92 1000.83 1000.83 1000.96 1001.24 1001.66 1002.22 1002.90 1003.65 1004.45 1005.25 1006.02 1006.73 1007.36 1007.90 1008.35 1008.74 1009.08 1009.39 1009.69 1010.01 1010.35 1010.73 1011.14 1011.57 1012.03 1012.49 1012.96 1013.42 1013.86 1014.28 1014.65 1014.99 1015.26 1015.47 1015.60 1015.64 1015.60 1015.46 1015.24
1000.72 1000.62 1000.51 1000.41 1000.37 1000.40 1000.53 1000.77 1001.15 1001.65 1002.27 1002.98 1003.76 1004.57 1005.37 1006.15 1006.86 1007.51 1008.07 1008.56 1008.98 1009.35 1009.69 1010.03 1010.36 1010.71 1011.07 1011.46 1011.86 1012.27 1012.69 1013.09 1013.48 1013.85 1014.18 1014.46 1014.69 1014.86 1014.95 1014.98 1014.92 1014.79 1014.58 1014.31
1000.00 999.98 999.98 1000.01 1000.09 1000.25 1000.49 1000.84 1001.28 1001.83 1002.47 1003.18 1003.94 1004.72 1005.50 1006.24 1006.93 1007.56 1008.13 1008.63 1009.07 1009.46 1009.83 1010.18 1010.53 1010.88 1011.25 1011.63 1012.01 1012.39 1012.77 1013.13 1013.46 1013.75 1014.00 1014.19 1014.31 1014.37 1014.35 1014.26 1014.10 1013.88 1013.60 1013.28
999.49 999.59 999.71 999.87 1000.08 1000.35 1000.69 1001.11 1001.61 1002.18 1002.81 1003.50 1004.21 1004.94 1005.65 1006.35 1007.00 1007.60 1008.14 1008.64 1009.08 1009.48 1009.86 1010.22 1010.58 1010.93 1011.30 1011.66 1012.03 1012.38 1012.73 1013.05 1013.32 1013.56 1013.72 1013.83 1013.85 1013.80 1013.68 1013.48 1013.22 1012.91 1012.56 1012.19
999.19 999.41 999.66 999.95 1000.28 1000.66 1001.08 1001.56 1002.09 1002.66 1003.27 1003.91 1004.57 1005.23 1005.89 1006.52 1007.12 1007.68 1008.19 1008.67 1009.10 1009.50 1009.87 1010.22 1010.57 1010.91 1011.26 1011.60 1011.94 1012.26 1012.57 1012.85 1013.08 1013.25 1013.35 1013.37 1013.31 1013.16 1012.94 1012.65 1012.30 1011.92 1011.51 1011.10
999.08 999.42 999.79 1000.20 1000.63 1001.10 1001.60 1002.12 1002.66 1003.23 1003.82 1004.42 1005.02 1005.62 1006.22 1006.79 1007.34 1007.86 1008.34 1008.78 1009.19 1009.57 1009.92 1010.25 1010.56 1010.87 1011.17 1011.48 1011.77 1012.05 1012.31 1012.54 1012.72 1012.83 1012.87 1012.82 1012.69 1012.47 1012.16 1011.80 1011.38 1010.93 1010.48 1010.03
999.13 999.57 1000.05 1000.56 1001.08 1001.62 1002.17 1002.73 1003.29 1003.86 1004.42 1004.99 1005.55 1006.10 1006.65 1007.17 1007.68 1008.16 1008.61 1009.02 1009.39 1009.73 1010.04 1010.32 1010.59 1010.84 1011.08 1011.32 1011.55 1011.76 1011.96 1012.13 1012.25 1012.30 1012.28 1012.18 1011.99 1011.71 1011.35 1010.93 1010.46 1009.97 1009.48 1009.01
999.32 999.85 1000.41 1000.99 1001.59 1002.19 1002.78 1003.37 1003.95 1004.51 1005.07 1005.61 1006.14 1006.66 1007.17 1007.66 1008.13 1008.58 1008.99 1009.36 1009.69 1009.98 1010.23 1010.45 1010.64 1010.81 1010.97 1011.12 1011.27 1011.40 1011.52 1011.62 1011.67 1011.67 1011.60 1011.45 1011.21 1010.89 1010.50 1010.04 1009.55 1009.03 1008.52 1008.04
999.65 1000.24 1000.87 1001.51 1002.15 1002.80 1003.43 1004.04 1004.62 1005.19 1005.74 1006.26 1006.78 1007.27 1007.75 1008.22 1008.65 1009.06 1009.43 1009.76 1010.04 1010.26 1010.44 1010.58 1010.68 1010.76 1010.82 1010.87 1010.92 1010.97 1011.00 1011.02 1011.00 1010.94 1010.83 1010.64 1010.37 1010.03 1009.61 1009.14 1008.64 1008.11 1007.60 1007.11
1000.16 1000.79 1001.44 1002.12 1002.80 1003.47 1004.11 1004.74 1005.33 1005.90 1006.43 1006.95 1007.44 1007.91 1008.36 1008.79 1009.19 1009.56 1009.88 1010.15 1010.36 1010.51 1010.61 1010.66 1010.66 1010.64 1010.60 1010.55 1010.50 1010.44 1010.39 1010.33 1010.25 1010.13 1009.97 1009.75 1009.47 1009.11 1008.70 1008.23 1007.73 1007.21 1006.70 1006.22
1000.84 1001.49 1002.17 1002.86 1003.55 1004.23 1004.88 1005.50 1006.09 1006.64 1007.16 1007.65 1008.11 1008.55 1008.96 1009.34 1009.69 1010.00 1010.25 1010.45 1010.59 1010.66 1010.67 1010.62 1010.53 1010.41 1010.27 1010.13 1009.98 1009.84 1009.71 1009.58 1009.44 1009.27 1009.08 1008.83 1008.53 1008.18 1007.77 1007.31 1006.83 1006.32 1005.83 1005.36
1001.73 1002.39 1003.07 1003.76 1004.45 1005.11 1005.75 1006.35 1006.91 1007.44 1007.92 1008.37 1008.78 1009.16 1009.51 1009.83 1010.10 1010.33 1010.51 1010.62 1010.67 1010.66 1010.58 1010.45 1010.27 1010.06 1009.84 1009.61 1009.39 1009.17 1008.97 1008.78 1008.59 1008.39 1008.16 1007.90 1007.59 1007.24 1006.84 1006.40 1005.93 1005.45 1004.97 1004.52
1002.82 1003.47 1004.14 1004.81 1005.48 1006.11 1006.72 1007.28 1007.79 1008.26 1008.69 1009.08 1009.42 1009.73 1010.00 1010.22 1010.41 1010.55 1010.63 1010.65 1010.60 1010.50 1010.33 1010.12 1009.87 1009.59 1009.30 1009.01 1008.73 1008.46 1008.21 1007.98 1007.75 1007.52 1007.26 1006.99 1006.67 1006.32 1005.92 1005.49 1005.04 1004.58 1004.12 1003.69
1004.06 1004.71 1005.36 1006.00 1006.62 1007.20 1007.75 1008.25 1008.70 1009.10 1009.45 1009.75 1010.01 1010.22 1010.39 1010.52 1010.60 1010.63 1010.60 1010.52 1010.39 1010.20 1009.95 1009.67 1009.36 1009.03 1008.69 1008.36 1008.04 1007.74 1007.46 1007.19 1006.94 1006.68 1006.40 1006.11 1005.78 1005.42 1005.02 1004.60 1004.16 1003.71 1003.26 1002.84
1005.42 1006.04 1006.66 1007.25 1007.81 1008.33 1008.80 1009.23 1009.59 1009.90 1010.16 1010.36 1010.52 1010.63 1010.69 1010.71 1010.68 1010.60 1010.47 1010.29 1010.06 1009.79 1009.48 1009.14 1008.78 1008.41 1008.04 1007.68 1007.35 1007.03 1006.73 1006.44 1006.16 1005.88 1005.58 1005.26 1004.91 1004.54 1004.13 1003.70 1003.25 1002.80 1002.36 1001.94
1006.83 1007.42 1007.98 1008.51 1009.00 1009.43 1009.81 1010.14 1010.41 1010.62 1010.78 1010.88 1010.93 1010.94 1010.89 1010.80 1010.67 1010.49 1010.26 1009.99 1009.68 1009.33 1008.96 1008.57 1008.17 1007.78 1007.39 1007.02 1006.67 1006.34 1006.02 1005.71 1005.41 1005.10 1004.78 1004.43 1004.05 1003.65 1003.22 1002.76 1002.30 1001.84 1001.39 1000.97
1008.22 1008.76 1009.25 1009.70 1010.09 1010.43 1010.71 1010.93 1011.10 1011.21 1011.27 1011.28 1011.23 1011.14 1011.00 1010.82 1010.59 1010.31 1010.00 1009.65 1009.27 1008.86 1008.44 1008.01 1007.58 1007.16 1006.76 1006.38 1006.01 1005.66 1005.33 1005.00 1004.67 1004.32 1003.96 1003.57 1003.15 1002.71 1002.24 1001.76 1001.27 1000.79 1000.32 999.88
1009.55 1010.01 1010.41 1010.76 1011.05 1011.28 1011.45 1011.56 1011.63 1011.65 1011.62 1011.54 1011.41 1011.24 1011.02 1010.76 1010.45 1010.10 1009.72 1009.30 1008.86 1008.40 1007.94 1007.48 1007.02 1006.58 1006.15 1005.75 1005.36 1004.99 1004.63 1004.27 1003.90 1003.51 1003.09 1002.65 1002.18 1001.69 1001.17 1000.64 1000.12 999.60 999.12 998.66
Thickness
5583 5587 5584 5586 5586 5583 5582 5585 5583 5590 5594 5613 5621 5623 5626 5627 5627 5624 5621 5620 5619 5616 5612 5606 5601 5596 5590 5584 5577 5570 5563 5556 5549 5542 5534 5526 5519 5513 5506 5500 5494 5488 5481 5476
5574 5578 5578 5580 5584 5584 5585 5588 5586 5589 5595 5615 5618 5617 5617 5619 5619 5619 5620 5619 5617 5613 5608 5604 5599 5593 5586 5579 5571 5564 5557 5549 5540 5532 5524 5517 5510 5503 5496 5490 5483 5477 5471 5466
5562 5570 5568 5569 5583 5583 5584 5587 5589 5590 5606 5613 5610 5611 5614 5616 5615 5616 5618 5617 5614 5611 5608 5604 5598 5591 5583 5574 5565 5556 5549 5540 5531 5523 5515 5508 5501 5493 5487 5480 5473 5467 5461 5456
5553 5555 5551 5585 5596 5594 5591 5593 5594 5599 5606 5609 5612 5614 5612 5613 5612 5613 5613 5612 5609 5605 5602 5597 5591 5583 5575 5565 5556 5548 5539 5531 5522 5514 5506 5498 5491 5484 5477 5470 5463 5457 5452 5446
5540 5546 5557 5574 5587 5589 5586 5590 5599 5599 5603 5606 5605 5603 5605 5609 5608 5609 5608 5606 5602 5598 5593 5587 5581 5573 5564 5555 5546 5538 5530 5522 5514 5506 5497 5489 5481 5474 5467 5460 5454 5448 5442 5436
5534 5543 5551 5577 5592 5593 5588 5585 5603 5601 5601 5599 5591 5588 5601 5606 5602 5599 5597 5593 5590 5585 5580 5575 5569 5562 5553 5544 5536 5530 5522 5514 5506 5497 5489 5481 5473 5465 5458 5451 5444 5439 5433 5427
5532 5541 5552 5576 5585 5585 5575 5590 5606 5602 5599 5591 5587 5594 5596 5593 5590 5586 5583 5580 5576 5572 5567 5561 5555 5549 5541 5533 5527 5520 5512 5503 5495 5487 5479 5471 5462 5455 5447 5440 5434 5428 5422 5417
5529 5535 5552 5577 5573 5581 5591 5598 5600 5597 5593 5588 5585 5583 5580 5579 5575 5571 5568 5564 5560 5556 5550 5545 5542 5537 5529 5521 5515 5507 5499 5491 5483 5475 5467 5460 5451 5443 5436 5429 5422 5416 5411 5407
5554 5565 5575 5575 5581 5588 5589 5590 5591 5589 5587 5583 5578 5573 5570 5566 5561 5557 5554 5550 5546 5542 5535 5530 5527 5523 5516 5508 5501 5494 5486 5478 5470 5462 5455 5447 5440 5432 5425 5418 5411 5406 5400 5396
5547 5557 5567 5570 5575 5579 5580 5583 5584 5583 5579 5573 5572 5566 5559 5553 5547 5544 5540 5536 5532 5528 5522 5516 5512 5508 5503 5495 5489 5482 5473 5465 5457 5450 5442 5435 5428 5422 5415 5407 5400 5395 5390 5386
5545 5555 5560 5566 5568 5573 5572 5571 5572 5571 5567 5565 5562 5556 5550 5544 5538 5533 5528 5524 5520 5517 5512 5505 5499 5494 5488 5482 5476 5468 5460 5452 5445 5438 5431 5424 5418 5411 5405 5400 5391 5386 5381 5374
5553 5558 5561 5568 5572 5568 5563 5563 5562 5560 5556 5554 5552 5548 5541 5535 5528 5523 5518 5513 5508 5504 5499 5492 5487 5481 5475 5470 5464 5457 5448 5440 5433 5426 5420 5413 5407 5402 5398 5391 5386 5380 5373 5366
5556 5557 5558 5563 5563 5560 5559 5558 5555 5552 5550 5544 5541 5537 5532 5524 5517 5512 5507 5502 5498 5493 5487 5480 5474 5468 5462 5457 5451 5444 5437 5429 5422 5415 5409 5402 5396 5390 5386 5384 5377 5370 5362 5354
5544 5545 5547 5550 5552 5551 5550 5548 5543 5539 5536 5533 5528 5524 5519 5512 5506 5501 5497 5492 5487 5480 5474 5468 5462 5456 5451 5445 5439 5432 5425 5419 5412 5405 5398 5391 5384 5378 5373 5368 5364 5360 5352 5342
5532 5539 5542 5541 5538 5536 5534 5532 5528 5524 5521 5518 5515 5511 5507 5502 5496 5490 5484 5479 5473 5467 5461 5455 5450 5444 5439 5434 5427 5421 5414 5407 5400 5393 5387 5380 5374 5367 5360 5354 5349 5346 5340 5332
5522 5523 5525 5527 5526 5523 5522 5522 5519 5515 5510 5507 5502 5498 5495 5490 5483 5477 5471 5466 5461 5455 5449 5444 5439 5433 5428 5422 5416 5409 5402 5398 5391 5383 5376 5369 5362 5355 5348 5342 5336 5331 5325 5318
5513 5512 5512 5513 5514 5513 5513 5513 5512 5507 5501 5496 5491 5486 5480 5475 5469 5463 5457 5453 5449 5443 5438 5433 5427 5422 5416 5410 5404 5397 5390 5385 5381 5373 5365 5358 5350 5343 5336 5329 5324 5318 5313 5305
5516 5518 5515 5514 5511 5506 5502 5500 5498 5494 5489 5484 5478 5472 5468 5464 5458 5451 5445 5439 5434 5429 5424 5420 5415 5410 5404 5398 5392 5385 5379 5373 5366 5359 5353 5346 5339 5332 5324 5318 5312 5306 5301 5294
5503 5503 5502 5502 5500 5498 5493 5488 5484 5479 5475 5470 5466 5460 5455 5450 5444 5438 5432 5427 5423 5418 5412 5408 5405 5398 5392 5386 5381 5374 5367 5361 5355 5348 5341 5335 5329 5321 5312 5306 5299 5293 5288 5282
5491 5491 5489 5487 5485 5482 5479 5474 5470 5465 5460 5456 5451 5445 5440 5434 5430 5424 5420 5415 5411 5406 5401 5396 5391 5386 5380 5375 5370 5362 5355 5349 5342 5336 5329 5322 5315 5308 5301 5294 5287 5281 5276 5271
5477 5476 5474 5472 5468 5466 5463 5460 5456 5450 5445 5442 5438 5432 5426 5420 5416 5411 5406 5401 5397 5393 5389 5386 5379 5374 5368 5363 5359 5351 5344 5337 5330 5323 5316 5309 5302 5296 5289 5282 5276 5271 5266 5261
5461 5460 5458 5456 5452 5447 5444 5443 5440 5435 5430 5426 5421 5417 5411 5406 5401 5397 5393 5389 5385 5382 5378 5372 5366 5362 5357 5353 5346 5338 5331 5324 5317 5310 5302 5295 5289 5283 5277 5271 5266 5261 5256 5251
5444 5444 5442 5439 5435 5430 5427 5424 5422 5419 5414 5410 5406 5402 5398 5393 5389 5385 5381 5376 5372 5370 5365 5359 5355 5351 5347 5340 5332 5324 5317 5310 5303 5296 5289 5283 5276 5271 5266 5261 5256 5251 5247 5242
5426 5425 5422 5420 5418 5415 5409 5405 5403 5401 5397 5393 5390 5387 5384 5379 5375 5370 5367 5364 5361 5357 5351 5346 5343 5338 5333 5325 5317 5309 5303 5296 5289 5283 5277 5271 5266 5261 5256 5251 5247 5242 5238 5235
5407 5405 5404 5403 5400 5395 5391 5388 5385 5382 5380 5376 5373 5371 5368 5365 5360 5357 5352 5349 5346 5343 5337 5332 5328 5323 5316 5308 5302 5295 5289 5283 5277 5271 5266 5261 5256 5251 5247 5243 5239 5235 5232 5229
5389 5387 5385 5383 5381 5378 5375 5374 5371 5368 5366 5363 5359 5356 5353 5350 5346 5342 5339 5336 5332 5328 5323 5317 5311 5306 5300 5294 5288 5282 5276 5271 5265 5259 5254 5250 5246 5242 5239 5235 5232 5229 5226 5225
5371 5370 5368 5365 5362 5361 5360 5359 5356 5352 5350 5348 5345 5342 5339 5336 5333 5329 5325 5322 5317 5313 5308 5303 5297 5292 5287 5281 5276 5270 5265 5260 5255 5250 5246 5242 5238 5234 5231 5228 5226 5224 5223 5222